EDDSEDSB

Guest
Details From EDDS - Stuttgart
To EDSB - Karlsruhe Baden Baden
Flight Number -
Tags Generated
Created
Modified
Stats Distance 45 nm / 83 km
Max Altitude 0 ft / 0 m
Waypoints 2
Social Downloads 2
Likes 0
Share VATSIM

Download

Looking for another format? Having issues loading an existing format? Contact us
Advertisement - Login to hide

Notes

Generated

Route

EDDS EDSB

ID Type Via Altitude Latitude Longitude Leg Dist Tot Dist Heading (true) Name
O EDDS APT - 0 ft / 0 m 48.68573˚ 9.20013˚ - 0 nm - -
O EDSB APT - 0 ft / 0 m 48.76783˚ 8.06994˚ 45 nm 45 nm 277° / 276° -

Altitude Profile

Advertisement - Login to hide

EDDS

Details ICAO EDDS (STR)
Name Stuttgart
Region Germany - Civil
Timezone Europe/Berlin (UTC+2.0)
Stats Elevation 1,273 ft / 388 m (AMSL)
Location 48.689876° 9.221962°
Runways 1
Magnetic Variation 2.579° E

METAR

EDDS 261550Z VRB01KT 9999 FEW060CB BKN300 25/11 Q1019 NOSIG

Decode

TAF

TAF EDDS 261100Z 2612/2712 VRB03KT 9999 FEW045 TEMPO 2612/2619 05005KT

Decode

Departure Runways

ID Width Length Bearing (true) Bearing (mag) Surface Threshold Offset Overrun Length
07 148 ft / 45 m 10,950 ft / 3,337 m 73.96° 71.38° Concrete 981 ft / 299 m 157 ft / 48 m
25 148 ft / 45 m 10,950 ft / 3,337 m 253.99° 251.41° Concrete 0 ft / 0 m 157 ft / 48 m

EDSB

Details ICAO EDSB (FKB)
Name Karlsruhe Baden Baden
Region Germany - Civil
Timezone Europe/Berlin (UTC+2.0)
Stats Elevation 408 ft / 124 m (AMSL)
Location 48.779257° 8.080642°
Runways 1
Magnetic Variation 2.279° E

METAR

EDSB 261550Z 01005G18KT 330V040 CAVOK 27/17 Q1018

Decode

TAF

TAF EDSB 261100Z 2612/2712 35005KT CAVOK BECMG 2617/2619 VRB03KT PROB30 TEMPO 2711/2712 20015G25KT 4500 TSRAGR BKN035CB

Decode

Destination Runways

ID Width Length Bearing (true) Bearing (mag) Surface Threshold Offset Overrun Length
03 148 ft / 45 m 9,799 ft / 2,987 m 31.69° 29.41° Asphalt 830 ft / 253 m 115 ft / 35 m
21 148 ft / 45 m 9,799 ft / 2,987 m 211.70° 209.42° Asphalt 830 ft / 253 m 115 ft / 35 m

Approach Navaids

Runway Type Ident Frequency Range Bearing (true) Bearing (mag) Slope Elevation
03 Localiser IKBE 109.95 MHz 18 nm / 33 km 31.45° 29.17° - 408 ft / 124 m (AMSL)
03 Glidescope IKBE 109.95 MHz 10 nm / 19 km 31.70° 29.42° 3.00° 456 ft / 139 m (AMSL)
21 Localiser IKBW 108.75 MHz 18 nm / 33 km 211.94° 209.66° - 405 ft / 123 m (AMSL)
21 Glidescope IKBW 108.75 MHz 10 nm / 19 km 211.70° 209.42° 3.00° 408 ft / 124 m (AMSL)

Popular Alternatives